Home   Weather   Fargo   Past weeks
Flag for USA

Past Weather in Fargo, North Dakota, USA — Yesterday and Last 2 Weeks

Now
55 °F

Overcast.


Feels Like: 53 °F
Forecast: 68 / 51 °F
Wind: 8 mph from West

Location: Hector International Airport

Current Time: Jun 17, 2019 at 2:29:41 am

Latest Report: Jun 17, 2019 at 1:53 am


Visibility: 10 mi

Pressure: 29.92 "Hg

Humidity: 90%

Dew Point: 52 °F

Location of FargoLocation

Past Weather in Fargo — Graph

°F

Fargo Temperature Yesterday

Maximum temperature yesterday: 68 °F (at 11:53 am)
Minimum temperature yesterday: 54 °F (at 11:53 pm)
Average temperature yesterday: 61 °F

High & Low Weather Summary for the Past Weeks

 TemperatureHumidityPressure
High95 °F (Jun 7, 2:53 pm)97% (Jun 8, 8:00 pm)30.19 "Hg (Jun 8, 8:00 pm)
Low45 °F (Jun 12, 3:53 am)19% (Jun 2, 11:53 am)29.54 "Hg (Jun 4, 5:53 pm)
Average68 °F54%29.86 "Hg
* Reported Jun 2 12:53 am — Jun 17 12:53 am, Fargo. Weather by CustomWeather, © 2019

Note: Actual official high and low records may vary slightly from our data, if they occured in-between our weather recording intervals... More about our weather records

Advertising

Fargo Weather History for the Previous 24 Hours

Scroll right to see more
 ConditionsComfort  
Time TempWeatherWind HumidityBarometerVisibility
12:53 am
Mon, Jun 17
55 °FPassing clouds.8 mph90%29.93 "Hg10 mi
11:53 pm
Sun, Jun 16
54 °FPassing clouds.8 mph90%29.91 "Hg10 mi
10:53 pm56 °FPassing clouds.6 mph87%29.92 "Hg10 mi
9:53 pm59 °FPassing clouds.9 mph78%29.90 "Hg10 mi
8:53 pm63 °FPartly sunny.12 mph68%29.88 "Hg10 mi
7:53 pm64 °FOvercast.7 mph65%29.87 "Hg10 mi
6:53 pm64 °FOvercast.10 mph63%29.87 "Hg10 mi
5:53 pm64 °FOvercast.13 mph61%29.88 "Hg10 mi
4:53 pm65 °FOvercast.14 mph63%29.87 "Hg10 mi
3:53 pm65 °FOvercast.16 mph66%29.87 "Hg10 mi
2:53 pm67 °FOvercast.16 mph61%29.86 "Hg10 mi
1:53 pm67 °FOvercast.14 mph63%29.86 "Hg10 mi
1:19 pm67 °FMostly cloudy.14 mph63%29.85 "Hg10 mi
12:53 pm66 °FOvercast.13 mph65%29.85 "Hg10 mi
12:15 pm63 °FLight rain. Partly sunny.12 mph78%29.85 "Hg10 mi
11:53 am68 °FPassing clouds.13 mph70%29.84 "Hg10 mi
11:10 am65 °FBroken clouds.10 mph76%29.86 "Hg10 mi
11:01 am63 °FCloudy.10 mph75%29.86 "Hg10 mi
9:53 am60 °FOvercast.9 mph80%29.86 "Hg10 mi
8:53 am58 °FOvercast.9 mph78%29.86 "Hg10 mi
7:53 am57 °FOvercast.5 mph78%29.85 "Hg10 mi
6:53 am57 °FOvercast.6 mph78%29.84 "Hg10 mi
5:53 am56 °FOvercast.6 mph84%29.84 "Hg10 mi
4:53 am56 °FOvercast.3 mph84%29.83 "Hg10 mi
3:53 am56 °FPassing clouds.3 mph90%29.81 "Hg10 mi
3:00 am57 °FMostly cloudy.3 mph87%29.82 "Hg10 mi
Weather by CustomWeather, © 2019

See weather overview